Location: Peterborough
(44.3091°N, 78.3197°W)
Time: 17:18:10
(UTC-04:00)

Transit 4A - Pass Details

Date: 27 March 2023
Orbit: 864 x 980 km, 66.8° (Epoch: 04 June)

Event Time Altitude Azimuth Distance (km) Brightness Sun altitude
Rises 05:34:50 0° 161° (SSE) 3,428 10.9 -16.4°
Reaches altitude 10° 05:38:11 10° 141° (SE) 2,501 10.4 -15.8°
Maximum altitude 05:41:40 17° 104° (ESE) 2,082 10.5 -15.2°
Drops below altitude 10° 05:45:11 10° 66° (ENE) 2,535 11.6 -14.6°
Sets 05:48:35 0° 47° (NE) 3,497 12.2 -14.0°
